User: anonymous   Login
Location: Borojevi?i
(45.0486°N, 16.2297°E)
Time: 10:08:12
(UTC+00:00)
Language:

Cosmos 2227 Rocket - Orbit

View from above orbital plane
View from above orbital plane
View from above satellite
View from above satellite

Ground track
Ground track

The orbit data is extracted from the following two-line orbital elements,

1 22285U 92093B   20304.88458355 +.00000195 +00000-0 +12523-3 0  9998
2 22285 071.0203 148.3960 0003032 020.0709 340.0533 14.15051891436490
Epoch (UTC): 30 October 2020 21:13:48
Eccentricity: 0.0003032
inclination: 71.0203°
perigee height: 840 km
apogee height: 844 km
right ascension of ascending node: 148.3960°
argument of perigee: 20.0709°
revolutions per day: 14.15051891
mean anomaly at epoch: 340.0533°
orbit number at epoch: 43649

The dashed part of the orbit path shows where the satellite is in the earth's shadow,  

DLR